Location: Ailly
(50.0793°N, 1.9944°E)
Time: 01:52:16
(UTC+00:00)

CZ-4C R/B - Pass Details

Date: 15 January 2026
Orbit: 483 x 1496 km, 63.4° (Epoch: 6 February)

Event Time Altitude Azimuth Distance (km) Brightness Sun altitude
Exits shadow 04:33:08 23° 359° (N) 1,834 3.9 -30.1°
Maximum altitude 04:33:16 23° 1° (N) 1,840 3.9 -30.1°
Drops below altitude 10° 04:38:35 10° 52° (NE) 2,923 5.6 -29.2°
Sets 04:42:15 0° 66° (ENE) 4,077 6.7 -28.6°
